Tracking 28790 objects as of 18-Apr-2024
HD Live streaming from Space Station
objects crossing your sky now

FENGYUN 1C DEB

Track FENGYUN 1C DEB now!
10-day predictions


NORAD ID: 30221
Int'l Code: 1999-025WE
Perigee: 647.0 km
Apogee: 861.9 km
Inclination: 99.0 °
Period: 99.8 minutes
Semi major axis: 7125 km
RCS: 0.045 m2 (small)
Launch date: May 10, 1999
Source: People's Republic of China (PRC)
Launch site: Taiyaun Space Center, China (TSC)

Note: This is SATELLITE DEBRIS
Your satellite tracking list
Your tracking list is empty




NASA's NSSDC Master Catalog

Two Line Element Set (TLE):
1 30221U 99025WE  24109.06081239  .00003037  00000-0  79777-3 0  9991
2 30221  99.0162 156.3697 0150784  38.1747 323.0007 14.43398224906975
Source of the keplerian elements: AFSPC